Location: Unspecified
(50.1700°N, 6.8600°E)
Time: 13:07:54
(UTC+00:00)

Daily predictions for brighter satellites

Satellite Brightness Start Highest point End
(mag) Time Altitude Azimuth Time Altitude Azimuth Time Altitude Azimuth
SL-8 Rocket 4.0 19:43:45 10° S 19:49:55 84° E 19:56:10 10° N
BREEZE-M DEB (TANK) 3.3 19:45:21 10° WNW 19:51:59 40° SW 19:54:50 10° SE
H-2A R/B 4.3 19:49:52 10° SW 19:54:05 24° W 19:58:13 10° NW
USA 267 3.3 19:49:05 10° ENE 19:55:41 74° SE 20:02:14 10° SW
SPOT 5 4.2 19:52:37 10° ESE 19:55:50 21° ENE 19:59:03 10° NNE
SPOT 1/Viking Rocket 4.2 19:54:40 10° SE 19:59:31 41° ENE 20:04:25 10° N
Cosmos 1151 Rocket 4.4 19:56:09 10° NNW 20:00:09 39° W 20:04:07 10° SSW
ERS-1 Rocket 4.1 19:56:32 10° ESE 20:00:52 30° ENE 20:05:12 10° N
Spot 2 Rocket 3.9 19:57:54 10° SE 20:02:51 52° ENE 20:07:48 10° N
ISS -1.1 20:02:26 10° WSW 20:03:25 11° SW 20:04:25 10° SSW
Cosmos 405 4.4 20:00:36 10° NNW 20:03:51 38° W 20:07:05 10° SSW
BREEZE-M DEB (TANK) 2.0 20:01:39 10° WSW 20:05:24 60° S 20:07:22 10° E
Terra 3.4 20:02:40 10° ESE 20:06:14 22° ENE 20:09:51 10° N
Cosmos 1743 Rocket 3.6 20:03:29 10° S 20:07:54 73° E 20:12:22 10° NNE
Cosmos 1408 Rocket 4.2 20:03:43 10° SSW 20:08:08 62° WNW 20:12:35 10° N
Cosmos 1992 Rocket 4.1 20:04:48 10° NNW 20:10:05 85° WSW 20:15:19 10° SSE
Cosmos 2218 Rocket 4.1 20:03:59 10° S 20:10:11 84° W 20:16:24 10° N
SPOT 3 Rocket 4.4 20:10:23 10° S 20:15:27 52° W 20:20:34 10° NNW
CZ-2C R/B 3.4 20:10:52 10° N 20:15:55 54° WNW 20:20:57 10° SW
Cosmos 972 Rocket 3.9 20:11:01 10° NNW 20:16:16 85° ENE 20:21:11 10° SSE
Cosmos 1980 Rocket 3.6 20:12:05 10° NNW 20:16:57 28° NE 20:21:47 10° ESE
Cosmos 1633 3.3 20:16:03 10° SSW 20:19:30 53° WNW 20:23:00 10° N
CZ-2C R/B 4.3 20:18:12 10° N 20:22:51 64° WNW 20:27:25 10° SSW
Intercosmos 25 3.8 20:19:36 10° N 20:25:26 72° ENE 20:28:55 12° SSE
Cosmos 389 Rocket 2.4 20:24:25 10° N 20:27:51 69° ENE 20:30:38 15° SSE
Cosmos 1500 Rocket 3.8 20:24:57 10° SSW 20:29:14 73° W 20:33:35 10° N
Cosmos 1862 3.3 20:26:02 10° S 20:30:02 65° E 20:34:05 10° NNE
Sich 1 3.4 20:26:22 10° SSE 20:30:34 45° E 20:34:49 10° NNE
Cosmos 1812 2.7 20:27:19 10° N 20:31:11 72° E 20:34:25 14° SSE
Cosmos 2251 Rocket 3.5 20:26:26 10° SSW 20:31:40 77° ESE 20:36:59 10° NNE
USA 234 3.6 20:26:32 12° SE 20:32:26 56° SW 20:38:52 10° WNW
MetOp-B 4.4 20:29:30 10° S 20:34:51 71° WSW 20:40:14 10° NNW
Cosmos 1697 Rocket 3.1 20:30:04 10° NNW 20:35:35 54° NE 20:39:58 16° SE
CARTOSAT-1 3.9 20:33:16 16° SE 20:36:32 51° ENE 20:40:45 10° N
Cosmos 1666 Rocket 4.2 20:35:55 16° SSE 20:38:57 37° E 20:42:55 10° NNE
IRIDIUM 104 4.4 20:34:12 10° S 20:39:25 83° W 20:44:41 10° N
Cosmos 1833 Rocket 3.4 20:35:48 10° SSE 20:40:41 33° ESE 20:45:38 10° NE
Cosmos 2228 Rocket 3.9 20:36:31 10° NNW 20:40:52 51° W 20:45:08 10° S
CZ-4B DEB 4.5 20:40:44 20° SSE 20:42:52 60° ENE 20:46:11 10° N
ATLAS 5 CENTAUR R/B 2.4 20:37:28 10° NW 20:43:03 86° SW 20:48:07 17° SE
IGS 5A 3.7 20:42:55 12° S 20:46:43 66° WSW 20:50:52 10° NNW
Cosmos 1441 Rocket 3.1 20:46:14 11° S 20:49:54 72° E 20:53:42 10° NNE
Resurs 01 Rocket 3.3 20:46:45 10° SSW 20:50:39 30° W 20:54:35 10° NNW
Cosmos 1805 Rocket 3.6 20:47:01 10° S 20:51:26 86° W 20:55:55 10° N
Cosmos 1140 Rocket 4.3 20:48:34 18° SSE 20:51:36 31° E 20:56:11 10° NE
COSMOS 2406 3.3 20:46:36 10° S 20:52:13 56° ESE 20:57:50 10° NE
Landsat 7 4.2 20:50:23 11° S 20:54:49 60° W 20:59:34 10° NNW
Cosmos 1900 4.3 20:51:35 10° SSW 20:56:26 59° ESE 21:01:23 10° NE
Lacrosse 5 3.2 20:56:00 10° WNW 21:00:46 39° N 21:05:32 10° ENE
Meteor 1-27 Rocket 3.9 20:55:47 10° NNW 21:01:41 85° W 21:06:27 17° S
Meteor 1-4 Rocket 2.6 20:59:01 10° N 21:02:31 58° ENE 21:04:03 29° SE
Cosmos 1818 3.6 20:58:20 10° NW 21:03:50 85° NE 21:07:21 23° SE
Cosmos 1184 Rocket 3.8 21:06:52 27° ESE 21:07:18 28° E 21:10:12 10° NNE
SL-16 R/B 3.9 21:04:01 10° NNW 21:08:35 24° NE 21:13:07 10° E
Cosmos 1656 4.1 21:03:16 10° NW 21:08:37 56° WSW 21:12:31 19° S
Cosmos 2369 3.7 21:02:55 10° NNW 21:08:43 81° ENE 21:12:22 23° SSE
Cosmos 1934 Rocket 4.0 21:07:45 13° S 21:13:23 76° E 21:19:47 10° NNE
GP-B 3.2 21:11:35 10° N 21:16:03 80° W 21:19:12 19° S
SL-8 R/B 4.1 21:11:48 10° W 21:16:25 46° SSW 21:18:33 28° SE
Cosmos 1633 Rocket 3.0 21:13:53 21° S 21:16:46 74° E 21:21:13 10° NNE
Cosmos 1821 Rocket 4.3 21:11:30 10° SSW 21:17:35 67° WNW 21:23:46 10° N
Cosmos 2278 3.8 21:14:24 10° NNW 21:20:09 70° ENE 21:23:28 26° SE
Cosmos 1437 Rocket 4.2 21:17:00 10° NNE 21:20:09 23° ENE 21:21:20 20° E
Cosmos 1707 Rocket 4.1 21:16:43 10° NNW 21:20:59 53° W 21:23:56 19° SSW
Cosmos 2082 Rocket 2.6 21:19:47 23° SSE 21:22:45 42° ESE 21:28:04 10° NE
ERBS 2.1 21:20:17 10° WSW 21:23:36 89° NW 21:26:56 10° ENE
CENTAUR R/B 4.1 21:28:14 15° ESE 21:28:21 15° ESE 21:31:48 10° ENE
Meteor 1-18 Rocket 4.4 21:27:46 10° N 21:33:22 58° ENE 21:36:06 29° SE
SPOT 5 3.1 21:31:08 23° SSW 21:33:37 52° W 21:37:52 10° NNW
Cosmos 2123 Rocket 4.2 21:27:59 10° NNW 21:34:08 67° W 21:38:35 20° S
Cosmos 1470 Rocket 3.6 21:32:29 32° SSE 21:34:23 64° E 21:38:47 10° NNE
Cosmos 1602 4.3 21:34:07 35° ESE 21:34:48 38° E 21:38:28 10° NNE
Cosmos 2322 Rocket 3.7 21:29:56 10° NNW 21:34:49 28° NE 21:38:56 13° E
Cosmos 614 Rocket 4.1 21:30:22 10° SSW 21:35:31 73° WNW 21:40:45 10° NNE
Cosmos 1954 Rocket 4.4 21:34:46 30° SSE 21:36:57 46° ESE 21:42:03 10° NNE
USA 267 3.9 21:32:12 10° ENE 21:38:37 59° NNW 21:45:02 10° W
NOSS 3-2 (A) 4.2 21:38:03 27° SE 21:39:03 29° ESE 21:44:22 10° ENE
ERS-1 Rocket 3.8 21:36:07 19° SSW 21:39:30 45° W 21:44:20 10° NNW
Okean 1-7 3.7 21:35:49 10° N 21:39:59 42° ENE 21:41:19 32° ESE
Terra 2.1 21:41:06 27° S 21:43:37 60° WSW 21:48:21 10° NNW
Aureole 1 Rocket 4.3 21:39:58 21° S 21:44:31 67° ESE 21:52:28 10° NNE
Cosmos 1190 Rocket 3.9 21:41:27 18° SSW 21:45:25 85° ESE 21:50:46 10° NNE
Cosmos 1862 Rocket 4.0 21:42:14 10° NNW 21:46:40 59° W 21:48:46 29° SSW
Cosmos 1238 Rocket 2.1 21:49:56 67° S 21:50:18 86° E 21:53:20 10° N
Cosmos 1605 Rocket 3.9 21:46:16 22° S 21:50:23 90° E 21:56:32 10° N
Cosmos 2360 Rocket 4.0 21:47:52 10° NNW 21:52:26 24° NE 21:56:56 10° E
Cosmos 407 Rocket 3.7 21:48:17 11° SSW 21:53:28 71° WNW 21:58:48 10° NNE
Cosmos 405 Rocket 2.6 21:55:23 56° SE 21:55:49 61° E 21:59:28 10° NNE
MTI 3.5 21:53:16 10° NNE 21:56:20 73° E 21:56:20 73° E
USA 32 4.5 21:57:33 20° SSW 22:01:04 58° W 22:06:15 10° N
Cosmos 1980 Rocket 2.3 21:55:48 10° NNW 22:01:29 70° WSW 22:03:53 35° S
Cosmos 1867 3.8 22:00:25 37° SSE 22:01:55 46° ESE 22:07:08 10° NE
Meteor 1-25 Rocket 4.2 21:59:25 27° SSW 22:02:37 85° WNW 22:08:15 10° NNE
ATLAS 5 CENTAUR R/B 2.4 22:01:55 10° NW 22:04:25 50° NE 22:07:09 23° ESE
Cosmos 2173 Rocket 4.3 22:04:19 33° SE 22:06:42 49° E 22:12:37 10° NNE
deb Kosmos-1763 3.9 22:06:51 62° SSW 22:07:25 90° ESE 22:11:05 10° NNE
Cosmos 2242 Rocket 3.7 22:05:15 10° NNW 22:09:42 68° W 22:11:04 42° SSW
Geosat 4.3 22:08:21 36° S 22:10:09 55° WSW 22:15:07 10° NW
Okean 3 4.3 22:06:58 10° N 22:10:57 37° ENE 22:11:49 33° E
Meteor 2-4 Rocket 3.8 22:05:52 10° N 22:11:40 66° ENE 22:13:49 38° SE
Cosmos 921 Rocket 2.9 22:07:28 10° NNW 22:11:45 74° WSW 22:12:40 52° S
Thor Agena Rocket 3.8 22:09:01 10° NNE 22:13:57 50° E 22:15:10 41° SE
Genesis I 3.0 22:10:43 10° NW 22:14:36 79° SW 22:15:02 67° S
Cosmos 1500 3.8 22:15:08 40° E 22:15:08 40° E 22:18:33 10° NNE
Cosmos 1933 Rocket 3.7 22:14:33 38° SSW 22:16:08 71° WNW 22:20:34 10° N
Cosmos 1697 Rocket 4.0 22:14:28 10° NW 22:19:17 30° WSW 22:21:41 22° SW
ALOS 2 3.2 22:20:23 37° ESE 22:21:27 45° ENE 22:25:39 10° N
Cosmos 2016 Rocket 4.5 22:21:21 34° SE 22:23:31 46° E 22:29:33 10° NNE
Cosmos 1833 Rocket 3.5 22:18:58 10° SW 22:24:25 50° NW 22:29:55 10° NNE
Cosmos 1153 Rocket 4.5 22:21:13 30° SSW 22:24:27 79° W 22:30:39 10° N
Cosmos 1869 Rocket 3.6 22:24:33 54° SE 22:25:12 61° E 22:29:36 10° NNE
ATLAS 5 CENTAUR R/B 4.0 22:22:59 10° WNW 22:27:18 21° WSW 22:29:39 17° SW
Cosmos 1666 4.1 22:27:56 25° E 22:27:56 25° E 22:30:42 10° NNE
Cosmos 1763 Rocket 3.5 22:23:29 10° NNW 22:28:51 86° ENE 22:30:31 46° SSE
Cosmos 1802 Rocket 4.2 22:26:45 37° SSE 22:29:09 59° E 22:35:26 10° NNE
USA 238 DEB 3.7 22:28:21 33° S 22:31:23 60° SE 22:38:11 10° NE
USA 238 3.7 22:28:31 33° S 22:31:29 60° SE 22:38:16 10° NE
Spot 4 3.8 22:30:23 49° S 22:31:39 80° WSW 22:36:30 10° NNW
Okean 1 4.2 22:28:11 10° NNW 22:31:57 39° W 22:32:48 35° WSW
Cosmos 1140 Rocket 4.5 22:28:31 12° SW 22:33:14 45° WNW 22:38:18 10° NNE
Cosmos 2221 Rocket 4.0 22:29:05 10° N 22:33:27 51° ENE 22:34:15 45° ESE
Cosmos 1703 Rocket 4.0 22:29:10 10° NNW 22:33:27 53° W 22:34:26 43° SW
Cosmos 1459 Rocket 4.0 22:32:04 39° S 22:34:34 77° E 22:40:55 10° NNE
Cosmos 1850 Rocket 4.1 22:35:21 47° SSE 22:36:33 60° ESE 22:41:46 10° NNE
Meteor 1-11 Rocket 4.3 22:35:19 36° SE 22:36:41 42° E 22:42:00 10° NNE
ATLAS 3B R/B 4.0 22:37:36 19° ESE 22:37:46 19° ESE 22:42:11 10° ENE
Iridium 4 Rocket 3.1 22:38:02 53° SSW 22:39:04 80° W 22:43:27 10° N
Cosmos 1515 4.3 22:35:54 10° NNW 22:39:34 44° W 22:39:59 42° WSW
Lacrosse 5 2.1 22:39:17 10° WNW 22:44:22 69° NNE 22:46:55 29° ESE
BREEZE-M DEB (TANK) 3.7 22:44:43 10° W 22:48:48 82° S 23:04:52 10° ESE
SL-27 R/B 3.7 22:51:19 31° ENE 22:51:19 31° ENE 22:53:28 10° NE
SL-16 R/B 2.1 22:47:43 10° NNW 22:53:26 86° WSW 22:55:08 47° SSE
Cosmos 1437 Rocket 3.8 22:53:01 10° NNW 22:56:29 32° W 22:56:44 32° WSW
Nimbus 7 Rocket 4.4 22:50:44 10° NNE 22:56:37 71° ESE 22:58:26 45° S
Cosmos 1536 3.3 22:56:52 46° E 22:56:52 46° E 23:00:35 10° NNE
Cosmos 2208 Rocket 4.0 22:53:05 10° NNW 22:58:25 74° ENE 22:59:54 47° SE
ERBS 4.4 22:57:16 10° WNW 23:00:13 28° NNW 23:03:09 10° NE
MOS 1-B Rocket 4.2 22:54:51 10° N 23:00:41 59° WNW 23:03:32 29° SW
Cosmos 1570 Rocket 3.9 22:57:39 10° NNW 23:02:59 88° WSW 23:04:18 53° SSE
Cosmos 1816 Rocket 4.4 22:57:02 10° N 23:03:24 85° E 23:05:34 44° SSE
Helios 1A 3.4 23:03:25 46° E 23:04:01 50° ENE 23:08:07 10° N
Tsikada Rocket 4.0 22:57:58 10° N 23:04:24 78° E 23:06:40 43° SSE
Cosmos 2082 Rocket 3.3 23:01:33 10° WSW 23:06:52 41° NW 23:12:15 10° NNE
Cosmos 1733 Rocket 3.2 23:07:07 54° ESE 23:07:20 55° E 23:11:39 10° NNE
Cosmos 1741 Rocket 4.0 23:06:13 47° SSW 23:07:47 84° WNW 23:13:06 10° NNE
Cosmos 1242 Rocket 3.2 23:04:36 10° N 23:07:54 47° ENE 23:07:54 47° ENE
Meteor 1-13 Rocket 4.2 23:05:21 10° NNW 23:10:54 70° W 23:12:22 49° SSW
Cosmos 2346 Rocket 4.5 23:07:12 10° NNW 23:13:15 70° W 23:15:12 44° SSW
Cosmos 2219 Rocket 3.7 23:09:49 10° NNW 23:14:55 32° NE 23:19:22 13° ESE
Cosmos 841 Rocket 3.4 23:10:56 10° NNW 23:16:09 73° WSW 23:17:11 56° S
CENTAUR R/B 2.5 23:15:22 43° SSW 23:17:29 70° SE 23:24:37 10° NE
Cosmos 44 3.4 23:13:02 10° NW 23:17:53 76° NE 23:19:19 47° ESE
Cosmos 2322 Rocket 2.2 23:13:42 10° NNW 23:19:23 69° WSW 23:20:43 51° S
COSMOS 2428 4.2 23:14:46 10° NNW 23:19:55 32° NE 23:24:38 12° ESE
Cosmos 1814 Rocket 3.9 23:14:51 10° NNW 23:20:03 81° WSW 23:21:08 57° S
EO 1 Del DPAF 4.1 23:17:00 10° N 23:20:33 40° WNW 23:21:02 38° W
USA 267 4.1 23:14:51 10° ENE 23:21:07 50° N 23:27:23 10° WNW
Cosmos 1378 3.7 23:18:42 10° N 23:22:18 50° ENE 23:22:18 50° ENE
YAOGAN 11 4.3 23:25:18 57° SE 23:26:04 71° ENE 23:30:40 10° N
NOSS 3-2 (A) 3.6 23:25:22 22° WSW 23:29:16 70° NW 23:36:03 10° NE
Cosmos 1908 Rocket 4.4 23:29:17 37° ESE 23:29:35 37° E 23:33:39 10° NNE
NOSS 3-2 (C) 3.3 23:29:17 39° SW 23:31:40 87° SE 23:38:23 10° NE
COSMOS 2487 4.2 23:34:50 24° ENE 23:34:50 24° ENE 23:36:49 10° NE
Meteor 1-23 Rocket 4.2 23:30:24 10° NNW 23:36:15 78° W 23:37:52 50° S
Cosmos 540 Rocket 3.7 23:31:43 10° NNW 23:36:44 52° WSW 23:37:27 48° SW
Cosmos 2360 Rocket 2.1 23:31:27 10° NNW 23:37:11 87° WSW 23:38:48 49° SSE
Cosmos 2333 Rocket 3.0 23:34:57 10° NNW 23:40:34 49° NE 23:44:02 22° ESE
Cosmos 1980 Rocket 4.3 23:42:18 10° WNW 23:44:25 12° W 23:45:38 11° WSW
Cosmos 1271 Rocket 2.8 23:42:47 10° N 23:46:24 69° ENE 23:46:24 69° ENE
Cosmos 1378 Rocket 3.4 23:42:37 10° NNW 23:47:06 81° W 23:47:29 72° SSW
Cosmos 1743 2.8 23:47:59 65° E 23:47:59 65° E 23:51:43 10° NNE
Cosmos 1725 Rocket 4.4 23:49:36 34° SW 23:52:08 55° WNW 23:58:21 10° N
Cosmos 1975 Rocket 3.9 23:49:25 10° N 23:53:45 44° ENE 23:54:48 37° ESE
Okean 2 3.7 23:50:16 10° N 23:54:19 55° ENE 23:54:43 52° ESE
